Home   Weather   Bratislava   Past weeks

Flag for Slovakia Past Weather in Bratislava, Slovakia — Yesterday and Last 2 Weeks

Now
34 °F

Passing clouds.


Feels Like: 27 °F
Forecast: 22 / 35 °F
Wind: 8 mph from Southwest

Location: Bratislava Ivanka

Current Time: Dec 3, 2016 at 1:18:43 am

Latest Report: Dec 3, 2016 at 1:00 am


Visibility: N/A

Pressure: 30.15 "Hg

Humidity: 75%

Dew Point: 27 °F

Location of BratislavaLocation

Past Weather in Bratislava — Graph

°F

Bratislava Temperature Yesterday

Maximum temperature yesterday: 45 °F (at 12:00 am)
Minimum temperature yesterday: 34 °F (at 11:30 pm)
Average temperature yesterday: 41 °F

High & Low Weather Summary for the Past Weeks

 TemperatureHumidityPressure
High57 °F (Nov 20, 2:30 pm)100% (Nov 18, 12:00 am)30.51 "Hg (Nov 18, 12:00 am)
Low28 °F (Nov 29, 4:30 am)45% (Nov 30, 12:00 pm)29.68 "Hg (Dec 2, 4:00 am)
Average43 °F80%30.09 "Hg
* Reported Nov 18 12:00 am — Dec 3 12:00 am, Bratislava, Weather by CustomWeather, © 2016

Note: Actual official high and low records may vary slightly from our data, if they occured in-between our weather recording intervals... More about our weather records

Advertising

Bratislava Weather History for the Previous 24 Hours

Scroll right to see more
 ConditionsComfort  
Time TempWeatherWind HumidityBarometerVisibility
12:00 am
Sat, Dec 3
34 °FPassing clouds.12 mph75%30.15 "HgN/A
11:30 pm
Fri, Dec 2
34 °FPassing clouds.12 mph75%30.15 "HgN/A
11:00 pm36 °FPassing clouds.7 mph70%30.15 "HgN/A
10:30 pm37 °FPassing clouds.7 mph65%30.12 "HgN/A
10:00 pm37 °FPassing clouds.15 mph65%30.12 "HgN/A
9:30 pm37 °FPassing clouds.10 mph65%30.12 "HgN/A
9:00 pm37 °FClear.16 mph65%30.09 "Hg10 mi
8:30 pm37 °FClear.15 mph65%30.09 "Hg10 mi
8:00 pm37 °FClear.16 mph65%30.09 "Hg10 mi
7:30 pm37 °FClear.12 mph70%30.07 "Hg10 mi
7:00 pm37 °FClear.15 mph70%30.07 "Hg10 mi
6:30 pm39 °FClear.16 mph65%30.07 "Hg10 mi
6:00 pm39 °FClear.13 mph65%30.07 "Hg10 mi
5:30 pm39 °FPassing clouds.14 mph61%30.07 "HgN/A
5:00 pm39 °FPassing clouds.8 mph61%30.07 "HgN/A
4:30 pm41 °FPassing clouds.7 mph57%30.04 "HgN/A
4:00 pm43 °FPassing clouds.10 mph57%30.04 "HgN/A
3:00 pm43 °FScattered clouds.25 mph49%29.98 "HgN/A
2:30 pm45 °FScattered clouds.20 mph49%29.98 "HgN/A
2:01 pm45 °FScattered clouds.23 mph49%29.95 "HgN/A
1:30 pm45 °FScattered clouds.21 mph53%29.92 "HgN/A
1:01 pm45 °FScattered clouds.29 mph49%29.92 "HgN/A
12:30 pm45 °FPassing clouds.26 mph53%29.89 "HgN/A
12:00 pm45 °FScattered clouds.30 mph57%29.86 "HgN/A
11:30 am43 °FScattered clouds.32 mph66%29.83 "HgN/A
11:00 am43 °FSprinkles. Partly sunny.30 mph66%29.83 "HgN/A
10:30 am43 °FSprinkles. Partly sunny.33 mph66%29.83 "HgN/A
10:00 am43 °FSprinkles. Broken clouds.26 mph76%29.83 "HgN/A
9:30 am41 °FSprinkles. Broken clouds.32 mph81%29.80 "HgN/A
9:00 am41 °FSprinkles. Broken clouds.21 mph87%29.80 "Hg4 mi
8:30 am43 °FSprinkles. Broken clouds.30 mph76%29.77 "HgN/A
8:00 am43 °FSprinkles. Partly sunny.32 mph76%29.71 "HgN/A
7:30 am43 °FScattered clouds.35 mph71%29.71 "HgN/A
7:00 am43 °FPassing clouds.38 mph66%29.68 "HgN/A
6:30 am43 °FPassing clouds.40 mph66%29.68 "HgN/A
6:00 am43 °FPassing clouds.41 mph66%29.68 "HgN/A
5:30 am43 °FPassing clouds.43 mph66%29.68 "HgN/A
5:00 am43 °FPassing clouds.41 mph66%29.68 "HgN/A
4:30 am43 °FPassing clouds.45 mph66%29.68 "HgN/A
4:00 am43 °FPassing clouds.44 mph66%29.68 "HgN/A
3:30 am43 °FPassing clouds.41 mph66%29.71 "HgN/A
3:00 am43 °FPassing clouds.41 mph66%29.74 "HgN/A
2:30 am43 °FPartly cloudy.39 mph61%29.74 "HgN/A
2:00 am43 °FPartly cloudy.38 mph61%29.74 "HgN/A
1:30 am43 °FPassing clouds.32 mph61%29.74 "HgN/A
1:00 am43 °FPassing clouds.31 mph61%29.77 "HgN/A
Weather by CustomWeather, © 2016

See weather overviewHow to use our weather pages